7 * 24
多渠道服务支持
STARLINK-32455 是 SpaceX Starlink 卫星互联网项目中的一颗低轨卫星,属于第 6 批次部署的星链卫星之一。该卫星运行在约 550 公里的轨道高度,旨在为全球用户提供高速、低延迟的宽带互联网服务。作为星链计划的重要组成部分,STARLINK-32455 采用先进推进系统和激光通信技术,提升网络稳定性和数据传输效率。该卫星的发射和运行有助于扩展 Starlink 在偏远和网络基础设施薄弱地区的覆盖能力。
  
                美国
                (US)
                | 数据来源 | 国际轨道数据 | 
| 星历时间: | 2025-11-02T15:42:16+0800 1天前 查看轨道信息 | 
| 半长轴: | 6861.251km | 
| 偏心率: | 0.0000311 | 
| 轨道倾角: | 43.002° | 
| 近地点辐角 | 246.769° | 
| 升交点赤经 | 157.570° | 
| 平近点角 | 113.313° | 
| 近地点: | 482.902km | 
| 远地点: | 483.33km | 
| 周期: | 94.268分钟 | 
| 每日圈数: | 15.275584 |